Satellite: AUBIESAT Catalog number: 37854 Epoch time: 14237 45673767 Element set: 877 Inclination: 101 7116 deg RA of node: 302 2716 deg Eccentricity: 0 0212703 Arg of perigee: 213 0566 deg Mean anomaly: 270 4716 deg Mean motion: 14 91358089 rev/day Decay rate: 6 050e-05 rev/day^2 Epoch rev: 15303 Checksum: 293

Satellite: HRBE Catalog number: 37855 Epoch time: 14240 81118336 Element set: 890 Inclination: 101 7114 deg RA of node: 306 4893 deg Eccentricity: 0 0214370 Arg of perigee: 204 6854 deg Mean anomaly: 154 4475 deg Mean motion: 14 90688118 rev/day Decay rate: 4 651e-05 rev/day^2 Epoch rev: 15349 Checksum: 303

Satellite: RS-39 Catalog number: 38051 Epoch time: 14241 01887334 Element set: 858 Inclination: 051 6217 deg RA of node: 213 4664 deg Eccentricity: 0 0007329 Arg of perigee: 096 6694 deg Mean anomaly: 263 5661 deg Mean motion: 15 71610606 rev/day Decay rate: 2 05184e-03 rev/day^2 Epoch rev: 14552 Checksum: 311

Satellite: E-STAR Catalog number: 38079 Epoch time: 14241 05351802 Element set: 949 Inclination: 069 4461 deg RA of node: 158 0659 deg Eccentricity: 0 0335314 Arg of perigee: 248 8132 deg Mean anomaly: 107 7242 deg Mean motion: 15 18428989 rev/day Decay rate: 2 81441e-03 rev/day^2 Epoch rev: 13449 Checksum: 322

Satellite: GOLIAT Catalog number: 38085 Epoch time: 14240 88315394 Element set: 309 Inclination: 069 4533 deg RA of node: 167 4371 deg Eccentricity: 0 0362494 Arg of perigee: 253 5891 deg Mean anomaly: 102 5521 deg Mean motion: 15 11688187 rev/day Decay rate: 2 15450e-03 rev/day^2 Epoch rev: 13422 Checksum: 305

Satellite: HORYU-2 Catalog number: 38340 Epoch time: 14237 80227314 Element set: 947 Inclination: 098 2675 deg RA of node: 196 2052 deg Eccentricity: 0 0012088 Arg of perigee: 320 5927 deg Mean anomaly: 039 4415 deg Mean motion: 14 72696538 rev/day Decay rate: 1 154e-05 rev/day^2 Epoch rev: 12204 Checksum: 299

Satellite: RS-40 Catalog number: 38735 Epoch time: 14238 09427720 Element set: 659 Inclination: 082 4717 deg RA of node: 243 9463 deg Eccentricity: 0 0018212 Arg of perigee: 101 4950 deg Mean anomaly: 258 8188 deg Mean motion: 12 42561196 rev/day Decay rate: 2 4e-07 rev/day^2 Epoch rev: 9426 Checksum: 308

Satellite: PROITERES Catalog number: 38756 Epoch time: 14241 04813064 Element set: 152 Inclination: 098 2274 deg RA of node: 330 5368 deg Eccentricity: 0 0013168 Arg of perigee: 146 4011 deg Mean anomaly: 213 8544 deg Mean motion: 14 75051712 rev/day Decay rate: 6 48e-06 rev/day^2 Epoch rev: 10592 Checksum: 275

Satellite: BEESAT-3 Catalog number: 39134 Epoch time: 14239 12485352 Element set: 683 Inclination: 064 8752 deg RA of node: 273 9160 deg Eccentricity: 0 0033888 Arg of perigee: 295 9896 deg Mean anomaly: 063 8239 deg Mean motion: 15 05867217 rev/day Decay rate: 4 792e-05 rev/day^2 Epoch rev: 7434 Checksum: 349

Satellite: BEESAT-2 Catalog number: 39136 Epoch time: 14238 22281809 Element set: 666 Inclination: 064 8705 deg RA of node: 277 4815 deg Eccentricity: 0 0032879 Arg of perigee: 295 7122 deg Mean anomaly: 064 0662 deg Mean motion: 15 05171560 rev/day Decay rate: 3 126e-05 rev/day^2 Epoch rev: 7419 Checksum: 310

Satellite: LO-75 Catalog number: 39382 Epoch time: 14240 78769556 Element set: 384 Inclination: 040 4873 deg RA of node: 013 9508 deg Eccentricity: 0 0021282 Arg of perigee: 041 3372 deg Mean anomaly: 318 9561 deg Mean motion: 15 54849938 rev/day Decay rate: 4 87754e-03 rev/day^2 Epoch rev: 4331 Checksum: 345

Satellite: ZACUBE-1 Catalog number: 39417 Epoch time: 14238 09674583 Element set: 386 Inclination: 097 7699 deg RA of node: 306 3024 deg Eccentricity: 0 0062616 Arg of perigee: 017 5219 deg Mean anomaly: 342 8183 deg Mean motion: 14 78273142 rev/day Decay rate: 9 99e-06 rev/day^2 Epoch rev: 4102 Checksum: 325

Satellite: TRITON-1 Catalog number: 39427 Epoch time: 14237 76330899 Element set: 238 Inclination: 097 7578 deg RA of node: 300 3844 deg Eccentricity: 0 0118854 Arg of perigee: 029 5082 deg Mean anomaly: 331 2756 deg Mean motion: 14 65535022 rev/day Decay rate: 7 44e-06 rev/day^2 Epoch rev: 4058 Checksum: 321

Satellite: DELFIN3XT Catalog number: 39428 Epoch time: 14237 71566529 Element set: 240 Inclination: 097 7565 deg RA of node: 299 3605 deg Eccentricity: 0 0128985 Arg of perigee: 032 2233 deg Mean anomaly: 328 6801 deg Mean motion: 14 63525949 rev/day Decay rate: 1 314e-05 rev/day^2 Epoch rev: 4050 Checksum: 316

Satellite: GOMX-1 Catalog number: 39430 Epoch time: 14238 22389061 Element set: 758 Inclination: 097 7506 deg RA of node: 297 1245 deg Eccentricity: 0 0157129 Arg of perigee: 038 0993 deg Mean anomaly: 323 1185 deg Mean motion: 14 56969447 rev/day Decay rate: 8 84e-06 rev/day^2 Epoch rev: 4041 Checksum: 327

Satellite: MO-76 Catalog number: 39436 Epoch time: 14237 57212179 Element set: 307 Inclination: 097 7759 deg RA of node: 310 1592 deg Eccentricity: 0 0025728 Arg of perigee: 022 9991 deg Mean anomaly: 337 2357 deg Mean motion: 14 91344205 rev/day Decay rate: 9 005e-05 rev/day^2 Epoch rev: 4121 Checksum: 314

Satellite: LO-74 Catalog number: 39440 Epoch time: 14237 61804068 Element set: 238 Inclination: 097 7650 deg RA of node: 303 6227 deg Eccentricity: 0 0084834 Arg of perigee: 022 2992 deg Mean anomaly: 338 1869 deg Mean motion: 14 73210046 rev/day Decay rate: 8 46e-06 rev/day^2 Epoch rev: 4080 Checksum: 310

Satellite: PUCPSAT-1 Catalog number: 39442 Epoch time: 14238 18718876 Element set: 237 Inclination: 097 7761 deg RA of node: 309 8385 deg Eccentricity: 0 0035286 Arg of perigee: 017 9281 deg Mean anomaly: 342 3252 deg Mean motion: 14 86328860 rev/day Decay rate: 1 563e-05 rev/day^2 Epoch rev: 4002 Checksum: 321

Satellite: SHINAISAT Catalog number: 39572 Epoch time: 14240 96334022 Element set: 258 Inclination: 065 0070 deg RA of node: 149 1561 deg Eccentricity: 0 0020660 Arg of perigee: 282 3128 deg Mean anomaly: 077 6221 deg Mean motion: 15 76109077 rev/day Decay rate: 2 68055e-03 rev/day^2 Epoch rev: 2855 Checksum: 286

Satellite: TEIKYOSAT Catalog number: 39576 Epoch time: 14240 96323628 Element set: 271 Inclination: 065 0059 deg RA of node: 146 0863 deg Eccentricity: 0 0020812 Arg of perigee: 285 5366 deg Mean anomaly: 074 3991 deg Mean motion: 15 82731621 rev/day Decay rate: 3 79119e-03 rev/day^2 Epoch rev: 2861 Checksum: 313

Satellite: CO-77 Catalog number: 39577 Epoch time: 14240 72350787 Element set: 359 Inclination: 064 9890 deg RA of node: 139 0971 deg Eccentricity: 0 0017064 Arg of perigee: 256 3597 deg Mean anomaly: 103 6054 deg Mean motion: 16 17194585 rev/day Decay rate: 1 438776e-02 rev/day^2 Epoch rev: 2894 Checksum: 364

Satellite: SPROUT Catalog number: 39770 Epoch time: 14240 95317833 Element set: 111 Inclination: 097 8729 deg RA of node: 336 9949 deg Eccentricity: 0 0011842 Arg of perigee: 076 3792 deg Mean anomaly: 283 9252 deg Mean motion: 14 82716346 rev/day Decay rate: 9 08e-06 rev/day^2 Epoch rev: 1448 Checksum: 330

Satellite: POPSAT-HIP1 Catalog number: 40028 Epoch time: 14239 70341052 Element set: 202 Inclination: 097 9788 deg RA of node: 134 4822 deg Eccentricity: 0 0016570 Arg of perigee: 064 3593 deg Mean anomaly: 295 9847 deg Mean motion: 14 85194623 rev/day Decay rate: 1 382e-05 rev/day^2 Epoch rev: 1020 Checksum: 294

Satellite: EO-80 Catalog number: 40032 Epoch time: 14238 23158069 Element set: 194 Inclination: 097 9762 deg RA of node: 132 9528 deg Eccentricity: 0 0014197 Arg of perigee: 062 9057 deg Mean anomaly: 297 3627 deg Mean motion: 14 84961446 rev/day Decay rate: 1 184e-05 rev/day^2 Epoch rev: 998 Checksum: 336

Satellite: VELOX-1 Catalog number: 40057 Epoch time: 14238 31300355 Element set: 186 Inclination: 098 2485 deg RA of node: 306 4683 deg Eccentricity: 0 0013376 Arg of perigee: 099 3840 deg Mean anomaly: 260 8908 deg Mean motion: 14 74070444 rev/day Decay rate: 1 199e-05 rev/day^2 Epoch rev: 841 Checksum: 299

Satellite: DAURIA DX 1 Catalog number: 40071 Epoch time: 14238 28724582 Element set: 157 Inclination: 098 3992 deg RA of node: 292 0867 deg Eccentricity: 0 0010121 Arg of perigee: 101 5716 deg Mean anomaly: 258 6639 deg Mean motion: 14 79548552 rev/day Decay rate: 5 24e-06 rev/day^2 Epoch rev: 717 Checksum: 306

Satellite: UKUBE-1 Catalog number: 40074 Epoch time: 14238 25854098 Element set: 159 Inclination: 098 3989 deg RA of node: 292 1305 deg Eccentricity: 0 0006596 Arg of perigee: 110 2659 deg Mean anomaly: 249 9271 deg Mean motion: 14 80453128 rev/day Decay rate: 1 175e-05 rev/day^2 Epoch rev: 717 Checksum: 316

Satellite: CHASQUI-1 Catalog number: 40117 Epoch time: 14240 87547405 Element set: 44 Inclination: 051 6452 deg RA of node: 099 2728 deg Eccentricity: 0 0003947 Arg of perigee: 087 5636 deg Mean anomaly: 004 3184 deg Mean motion: 15 50988669 rev/day Decay rate: 6 9956e-04 rev/day^2 Epoch rev: 157 Checksum: 324

/EX


Via the Keps mailing list courtesy of AMSAT-NA http://amsat org/mailman/listinfo/keps

Forward to a Friend
 
  • This mailing list is a public mailing list - anyone may join or leave, at any time.
  • This mailing list is announce-only.

Radio Comm Report list. Deals with all modes of communications in the 150 KHz to 1300 MHz, including solar and atmospheric conditions.

Privacy Policy:

Private List